When you browse on this site, cookies collect data to enhance your experience and personalize the content and advertising you see.
Visit our Privacy Policy to learn more. By continuing to use the site, you agree to this use of cookies and data.
  • In Austria
  • List of Countries
  • For 7 days
  • Water Temperature
  • Weather Map
  • News
  • Weather Widgets
  • user-avatar
    Login

    Hourly Weather Punta Gorda

    Today, 27 February, Thursday

    Time Temperature Precipitation Wind Pressure Humidity
    00:00 +25°C° 0 mm 3 mps 762 mmHg 97%
    01:00 +24°C° 1.3 mm 3 mps 762 mmHg 97%
    02:00 +24°C° 1.3 mm 3 mps 762 mmHg 97%
    03:00 +24°C° 1.3 mm 3 mps 762 mmHg 96%
    04:00 +24°C° 1.1 mm 2 mps 762 mmHg 97%
    05:00 +24°C° 1.1 mm 2 mps 762 mmHg 97%
    06:00 +24°C° 0 mm 2 mps 763 mmHg 97%
    07:00 +22°C° 1.3 mm 3 mps 764 mmHg 96%
    08:00 +22°C° 1.3 mm 4 mps 765 mmHg 96%
    09:00 +21°C° 1.3 mm 5 mps 766 mmHg 96%
    10:00 +21°C° 0.3 mm 5 mps 766 mmHg 94%
    11:00 +21°C° 0.3 mm 5 mps 766 mmHg 93%
    12:00 +21°C° 0.3 mm 5 mps 766 mmHg 91%
    13:00 +22°C° 0 mm 5 mps 766 mmHg 87%
    14:00 +22°C° 0 mm 5 mps 766 mmHg 83%
    15:00 +22°C° 0 mm 5 mps 765 mmHg 79%
    16:00 +22°C° 0 mm 4 mps 766 mmHg 79%
    17:00 +22°C° 0 mm 4 mps 766 mmHg 79%
    18:00 +22°C° 0 mm 4 mps 766 mmHg 79%
    19:00 +22°C° 0 mm 4 mps 766 mmHg 80%
    20:00 +21°C° 0 mm 3 mps 767 mmHg 81%
    21:00 +21°C° 0 mm 3 mps 767 mmHg 81%
    22:00 +21°C° 0 mm 3 mps 767 mmHg 81%
    23:00 +21°C° 0 mm 3 mps 767 mmHg 81%

    Tomorrow, 28 February, Friday

    Time Temperature Precipitation Wind Pressure Humidity
    00:00 +21°C° 0 mm 3 mps 767 mmHg 82%
    01:00 +21°C° 0 mm 3 mps 766 mmHg 82%
    02:00 +21°C° 0 mm 3 mps 766 mmHg 83%
    03:00 +21°C° 0 mm 3 mps 766 mmHg 84%
    04:00 +21°C° 0 mm 3 mps 766 mmHg 84%
    05:00 +21°C° 0 mm 2 mps 766 mmHg 84%
    06:00 +21°C° 0 mm 2 mps 766 mmHg 85%
    07:00 +21°C° 0 mm 2 mps 767 mmHg 83%
    08:00 +21°C° 0 mm 2 mps 767 mmHg 82%
    09:00 +23°C° 0 mm 1 mps 768 mmHg 80%
    10:00 +23°C° 0 mm 1 mps 768 mmHg 78%
    11:00 +23°C° 0 mm 1 mps 768 mmHg 76%
    12:00 +23°C° 0 mm 1 mps 767 mmHg 74%
    13:00 +23°C° 0 mm 1 mps 767 mmHg 74%
    14:00 +23°C° 0 mm 1 mps 767 mmHg 75%
    15:00 +24°C° 0 mm 1 mps 766 mmHg 75%
    16:00 +23°C° 0 mm 1 mps 766 mmHg 77%
    17:00 +23°C° 0 mm 1 mps 767 mmHg 79%
    18:00 +22°C° 0 mm 1 mps 767 mmHg 82%
    19:00 +21°C° 0 mm 2 mps 767 mmHg 82%
    20:00 +21°C° 0 mm 2 mps 768 mmHg 82%
    21:00 +21°C° 0 mm 3 mps 768 mmHg 82%
    22:00 +21°C° 0 mm 2 mps 768 mmHg 81%
    23:00 +21°C° 0 mm 2 mps 768 mmHg 80%

    Day after tomorrow, 29 February, Saturday

    Time Temperature Precipitation Wind Pressure Humidity
    00:00 +21°C° 0 mm 2 mps 768 mmHg 80%
    01:00 +21°C° 0 mm 2 mps 768 mmHg 79%
    02:00 +21°C° 0 mm 2 mps 767 mmHg 78%
    03:00 +21°C° 0 mm 2 mps 767 mmHg 78%
    04:00 +21°C° 0.1 mm 2 mps 767 mmHg 78%
    05:00 +21°C° 0.1 mm 2 mps 767 mmHg 79%
    06:00 +21°C° 0.1 mm 1 mps 767 mmHg 80%
    07:00 +22°C° 0.1 mm 1 mps 767 mmHg 79%
    08:00 +22°C° 0.1 mm 1 mps 768 mmHg 78%
    09:00 +22°C° 0.1 mm 1 mps 768 mmHg 78%
    10:00 +23°C° 0.1 mm 1 mps 768 mmHg 76%
    11:00 +23°C° 0.1 mm 1 mps 768 mmHg 75%
    12:00 +23°C° 0.1 mm 1 mps 768 mmHg 73%
    13:00 +23°C° 0 mm 1 mps 767 mmHg 75%
    14:00 +23°C° 0 mm 1 mps 766 mmHg 76%
    15:00 +23°C° 0 mm 1 mps 766 mmHg 77%
    16:00 +23°C° 0 mm 1 mps 766 mmHg 79%
    17:00 +22°C° 0 mm 1 mps 766 mmHg 81%
    18:00 +22°C° 0 mm 1 mps 766 mmHg 83%
    19:00 +21°C° 0 mm 1 mps 766 mmHg 85%
    20:00 +21°C° 0 mm 1 mps 766 mmHg 87%
    21:00 +20°C° 0 mm 1 mps 767 mmHg 89%
    22:00 +20°C° 0.2 mm 1 mps 767 mmHg 87%
    23:00 +21°C° 0.2 mm 1 mps 766 mmHg 85%

    1 March, Sunday

    Time Temperature Precipitation Wind Pressure Humidity
    00:00 +21°C° 0.2 mm 1 mps 766 mmHg 83%
    01:00 +21°C° 0.3 mm 1 mps 766 mmHg 84%
    02:00 +21°C° 0.3 mm 1 mps 765 mmHg 85%
    03:00 +21°C° 0.3 mm 1 mps 765 mmHg 85%
    04:00 +21°C° 0.3 mm 1 mps 765 mmHg 87%
    05:00 +20°C° 0.3 mm 1 mps 765 mmHg 89%
    06:00 +20°C° 0.3 mm 1 mps 765 mmHg 91%
    07:00 +21°C° 0.1 mm 1 mps 765 mmHg 88%
    08:00 +22°C° 0.1 mm 1 mps 765 mmHg 86%
    09:00 +23°C° 0.1 mm 1 mps 766 mmHg 84%
    10:00 +24°C° 0.1 mm 1 mps 765 mmHg 78%
    11:00 +26°C° 0.1 mm 1 mps 764 mmHg 73%
    12:00 +27°C° 0.1 mm 1 mps 764 mmHg 68%
    13:00 +28°C° 0.1 mm 2 mps 763 mmHg 67%
    14:00 +28°C° 0.1 mm 2 mps 762 mmHg 67%
    15:00 +28°C° 0.1 mm 2 mps 761 mmHg 67%
    16:00 +27°C° 0.1 mm 3 mps 761 mmHg 75%
    17:00 +25°C° 0.1 mm 3 mps 761 mmHg 83%
    18:00 +23°C° 0.1 mm 4 mps 762 mmHg 90%
    19:00 +22°C° 0.2 mm 4 mps 762 mmHg 92%
    20:00 +22°C° 0.2 mm 3 mps 762 mmHg 94%
    21:00 +21°C° 0.2 mm 3 mps 763 mmHg 96%
    22:00 +21°C° 0.2 mm 3 mps 763 mmHg 96%
    23:00 +21°C° 0.2 mm 3 mps 762 mmHg 96%

    2 March, Monday

    Time Temperature Precipitation Wind Pressure Humidity
    00:00 +21°C° 0.2 mm 2 mps 762 mmHg 96%
    01:00 +21°C° 0.1 mm 2 mps 762 mmHg 97%
    02:00 +22°C° 0.1 mm 1 mps 761 mmHg 97%
    03:00 +22°C° 0.1 mm 1 mps 761 mmHg 97%
    04:00 +22°C° 0.1 mm 1 mps 761 mmHg 97%
    05:00 +22°C° 0.1 mm 1 mps 761 mmHg 97%
    06:00 +22°C° 0.1 mm 1 mps 761 mmHg 97%
    07:00 +24°C° 0 mm 1 mps 761 mmHg 92%
    08:00 +25°C° 0 mm 1 mps 762 mmHg 88%
    09:00 +26°C° 0 mm 1 mps 762 mmHg 83%
    10:00 +28°C° 0 mm 1 mps 761 mmHg 74%
    11:00 +29°C° 0 mm 2 mps 761 mmHg 66%
    12:00 +30°C° 0 mm 3 mps 760 mmHg 57%
    13:00 +30°C° 0 mm 3 mps 759 mmHg 57%
    14:00 +30°C° 0 mm 4 mps 758 mmHg 57%
    15:00 +30°C° 0 mm 5 mps 757 mmHg 58%
    16:00 +29°C° 0 mm 5 mps 757 mmHg 65%
    17:00 +28°C° 0 mm 5 mps 758 mmHg 73%
    18:00 +26°C° 0 mm 5 mps 758 mmHg 80%
    19:00 +26°C° 0.1 mm 5 mps 758 mmHg 84%
    20:00 +25°C° 0.1 mm 4 mps 759 mmHg 88%
    21:00 +23°C° 0.1 mm 4 mps 759 mmHg 91%
    22:00 +23°C° 0.1 mm 4 mps 759 mmHg 92%
    23:00 +24°C° 0.1 mm 3 mps 759 mmHg 93%

    3 March, Tuesday

    Time Temperature Precipitation Wind Pressure Humidity
    00:00 +24°C° 0.1 mm 3 mps 759 mmHg 94%
    01:00 +24°C° 0.1 mm 2 mps 758 mmHg 94%
    02:00 +24°C° 0.1 mm 2 mps 758 mmHg 95%
    03:00 +24°C° 0.1 mm 1 mps 757 mmHg 95%
    04:00 +24°C° 0 mm 1 mps 757 mmHg 96%
    05:00 +24°C° 0 mm 1 mps 757 mmHg 96%
    06:00 +24°C° 0 mm 1 mps 758 mmHg 96%
    07:00 +26°C° 0 mm 1 mps 758 mmHg 89%
    08:00 +27°C° 0 mm 1 mps 758 mmHg 83%
    09:00 +27°C° 0 mm 0 mps 759 mmHg 76%
    10:00 +30°C° 0 mm 1 mps 758 mmHg 69%
    11:00 +32°C° 0 mm 2 mps 757 mmHg 61%
    12:00 +34°C° 0 mm 2 mps 757 mmHg 54%
    13:00 +34°C° 0 mm 3 mps 756 mmHg 53%
    14:00 +34°C° 0 mm 3 mps 755 mmHg 52%
    15:00 +35°C° 0 mm 4 mps 754 mmHg 52%
    16:00 +33°C° 0 mm 4 mps 754 mmHg 60%
    17:00 +30°C° 0 mm 4 mps 755 mmHg 69%
    18:00 +28°C° 0 mm 5 mps 755 mmHg 77%
    19:00 +27°C° 0 mm 4 mps 755 mmHg 82%
    20:00 +26°C° 0 mm 4 mps 756 mmHg 88%
    21:00 +26°C° 0 mm 3 mps 756 mmHg 93%
    22:00 +26°C° 0 mm 3 mps 756 mmHg 94%
    23:00 +26°C° 0 mm 2 mps 756 mmHg 94%
    Show more